Location: Cabeza de los Veneras
(40.2000°N, 5.2000°W)
Time: 02:19:49
(UTC+00:00)

Cosmos 1763 Rocket - Pass Details

Date: 18 April 2024
Orbit: 730 x 778 km, 74.0° (Epoch: 25 May)

Event Time Altitude Azimuth Distance (km) Brightness Sun altitude
Exits shadow 20:58:07 41° 98° (E) 1,056 3.8 -20.6°
Drops below altitude 10° 21:02:45 10° 33° (NNE) 2,260 6.0 -21.3°
Sets 21:05:13 0° 27° (NNE) 3,196 6.9 -21.6°
